Вернуться в каталог

STARLINK-4581

АктивенСвязьVLEO
NORAD 53576·PAYLOAD·🇺🇸 United States

Запущен Aug 19, 2022 с Cape Canaveral Space Force Station

Loading…

Ближайшие Пролёты (ближайшие 24 часа)

TLE

СвежийSource: CelesTrak SupGP

Эпоха: Sep 15, 2026, 00:38 UTC

1 53576C 22101BB  26258.02687500  .00029276  00000+0  94145-3 0  2582
2 53576  53.1560 275.3200 0001235  84.1414 350.3361 15.31686926    19

Отслеживайте STARLINK-4581 в реальном времени с AllMySat

Download on the App Store